Zurück zum Katalog

THORAD AGENA D DEB

AktivPO
NORAD 4945·DEBRIS·🇺🇸 United States

Gestartet Apr 8, 1970 von Vandenberg Space Force Base

Loading…

Nächste Überflüge

TLE

Source: Space-Track
1 04945U 70025GF  26229.86780122  .00001431  00000-0  10604-2 0  9993
2 04945  99.8677 285.7562 0086286 312.0211  47.3625 13.95363057803791

Verfolge THORAD AGENA D DEB in Echtzeit mit AllMySat

Download on the App Store